Regional Weather Roundup
Issued by NWS

Home | Current Version | Previous Version | Graphics & Text | Print | Product List | Glossary On
Versions: 1 2 3 4 5 6 7 8 9 10 11 12 13 14 15 16 17 18 19 20 21 22 23 24 25 26 27 28 29 30 31 32 33 34 35 36 37 38 39 40 41 42 43 44 45 46 47 48 49 50
000
ASUS45 KPSR 071510
RWRAZ

ARIZONA HOURLY REGIONAL WEATHER ROUNDUP
NATIONAL WEATHER SERVICE PHOENIX AZ
800 AM MST TUE JUL 07 2015

NOTE: FAIR INDICATES FEW OR NO CLOUDS BELOW 12,000 FEET WITH NO
SIGNIFICANT WEATHER AND/OR OBSTRUCTIONS TO VISIBILITY.

AZZ001>003-036-071600-
NORTHWEST ARIZONA

CITY           SKY/WX    TMP DP  RH WIND       PRES   REMARKS
BULLHEAD CITY  SUNNY     90  57  33 CALM      29.88R
KINGMAN        SUNNY     80  53  39 NW6       30.07S
$$

AZZ004>008-015-016-018-071600-
NORTH CENTRAL ARIZONA

CITY           SKY/WX    TMP DP  RH WIND       PRES   REMARKS
GRAND CANYON   PTSUNNY   65  51  60 W8        30.29R
WILLIAMS       PTSUNNY   64  54  68 CALM      30.36S
PRESCOTT       MOSUNNY   72  55  55 CALM      30.19R
FLAGSTAFF      SUNNY     65  52  62 S6        30.31R
PAYSON         SUNNY     75  50  41 CALM      30.21R
$$

AZZ009>014-017-071600-
NORTHEAST ARIZONA

CITY           SKY/WX    TMP DP  RH WIND       PRES   REMARKS
WINSLOW        SUNNY     72  55  55 NE3       30.18R
SAINT JOHNS    SUNNY     71  52  50 CALM      30.22R
WINDOW ROCK    SUNNY     65  54  67 CALM      30.28S
SHOW LOW       SUNNY     68  48  49 SW6       30.27F
$$

AZZ023-071600-
GREATER PHOENIX AREA

CITY           SKY/WX    TMP DP  RH WIND       PRES   REMARKS
PHOENIX        MOSUNNY   90  63  40 E3        29.90R
BUCKEYE        SUNNY     90  46  22 CALM      29.91S
GLENDALE       MOSUNNY   88  63  42 VRB3      29.92S
LUKE AFB       SUNNY     90  63  40 NW2       29.90R
DEER VALLEY    SUNNY     87  60  40 E3        29.93R
SCOTTSDALE     SUNNY     87  63  44 SE5       29.95R
MESA-GATEWAY   MOSUNNY   84  68  58 SE5       29.95R
CHANDLER       SUNNY     88  64  45 VRB5      29.93R
$$

AZZ027-028-071600-
SOUTHWEST MARICOPA COUNTY AND PINAL COUNTY

CITY           SKY/WX    TMP DP  RH WIND       PRES   REMARKS
CASA GRANDE    SUNNY     88  64  45 CALM      29.93R
GILA BEND      MOSUNNY   90  58  33 VRB3      29.89R
$$

AZZ503-504-507>509-071600-
SOUTHEAST ARIZONA

CITY           SKY/WX    TMP DP  RH WIND       PRES   REMARKS
TUCSON         SUNNY     84  63  49 S7        30.04S
DAVIS-MONTHAN  SUNNY     83  64  52 SE8       30.03S
RYAN FIELD     SUNNY    N/A N/A N/A SE3       30.03R
NOGALES        MOSUNNY   76  65  68 SE5       30.13R
SIERRA VISTA   MOSUNNY   76  61  58 NW10      30.19R
DOUGLAS        SUNNY     76  63  64 E5        30.14R
SAFFORD        MOSUNNY   83  60  45 NW10      30.03S
$$

AZZ020-021-025-026-031-071600-
SOUTHWEST ARIZONA

CITY           SKY/WX    TMP DP  RH WIND       PRES   REMARKS
YUMA           MOSUNNY   90  41  18 SE3       29.84R
$$

CAZ031-033-041-043-047-048-061-071600-
SOUTHERN CALIFORNIA

CITY           SKY/WX    TMP DP  RH WIND       PRES   REMARKS
DOWNTOWN L.A.  CLOUDY    66  60  81 CALM      30.00R HAZE
L.A. AIRPORT   CLOUDY    64  60  87 S5        30.01R
SAN DIEGO      DRIZZLE   65  60  84 W3        30.02R
BURBANK        CLOUDY    65  59  81 CALM      30.01R HAZE
ONTARIO        CLOUDY    64  58  80 CALM      30.01R HAZE
RIVERSIDE        N/A    N/A N/A N/A MISG      30.01
PALM SPRINGS   SUNNY     85  58  39 CALM      29.86R
EL CENTRO NAS  MOSUNNY   86  62  44 CALM      29.83S
IMPERIAL       SUNNY     85  64  49 CALM      29.81R
BLYTHE         SUNNY     90  49  24 S9        29.84R
NEEDLES        SUNNY     91  53  27 CALM      29.88S
$$

NVZ020-UTZ003-071600-
SOUTHERN NEVADA-UTAH

CITY           SKY/WX    TMP DP  RH WIND       PRES   REMARKS
LAS VEGAS      MOSUNNY   83  55  38 S5        29.95R
SALT LAKE CITY MOSUNNY   73  55  53 SE10      30.07S
$$

NMZ009-TXZ055-071600-
NEW MEXICO-WEST TEXAS

CITY           SKY/WX    TMP DP  RH WIND       PRES   REMARKS
ALBUQUERQUE    MOSUNNY   67  57  70 E9        30.24S
EL PASO        MOSUNNY   80  61  52 NE7       30.11R
$$


........................KEY........................
SKY/WX - SKY CONDITION/WEATHER
TMP    - TEMPERATURE IN FAHRENHEIT
DP     - DEW POINT IN FAHRENHEIT
RH     - RELATIVE HUMIDITY IN PERCENT
WIND   - DIRECTION AND SPEED IN MILES PER HOUR (MPH)
VRB    - VARIABLE WIND DIRECTION
PRES   - MEAN SEA LEVEL PRESSURE IN INCHES OF MERCURY
         F - FALLING PRESSURE   R - RISING PRESSURE
         S - STEADY PRESSURE
VSB    - VISIBILITY IN MILES
HX     - HEAT INDEX IN FAHRENHEIT
WCI    - WIND CHILL INDEX IN FAHRENHEIT
TC     - TEMPERATURE IN CELSIUS WHICH IS ALSO KNOWN AS
         TEMPERATURE IN CENTIGRADE
AFB    - AIR FORCE BASE
         LUKE AFB IS LUKE AIR FORCE BASE
         DAVIS-MONTHAN IS DAVIS-MONTHAN AIR FORCE BASE
NAS    - NAVAL AIR STATION
         EL CENTRO NAS IS EL CENTRO NAVAL AIR STATION
N/A    - NOT AVAILABLE




USA.gov is the U.S. government's official web portal to all federal, state and local government web resources and services.